GEFSNE_prec_meanprecacc_204.txt.gz
Total_Precipitation_Accumulation
1.04 1.09 1.14 1.19 1.24 1.24 1.29 1.39 1.55 1.55 1.38 1.16 1.06 1.09 1.15 1.19 1.36 1.20 1.14 1.11 0.98 0.90 0.89 0.93 0.97 1.00 1.08 1.20 1.29 1.34 1.33 1.33 1.37 1.48 1.62 1.76 1.89 2.00
0.91 0.92 0.94 1.01 1.17 1.28 1.35 1.43 1.54 1.61 1.57 1.26 1.11 1.09 1.15 1.16 1.33 1.17 1.16 1.21 1.00 0.84 0.80 0.90 0.97 0.96 1.00 1.04 1.05 1.09 1.13 1.14 1.17 1.25 1.39 1.51 1.65 1.81
0.77 0.79 0.86 0.93 1.02 1.09 1.21 1.34 1.51 1.66 1.71 1.45 1.21 1.13 1.16 1.21 1.24 1.14 1.07 0.99 0.90 0.86 0.73 0.78 1.02 1.18 1.09 1.00 0.95 0.94 0.96 0.99 1.03 1.11 1.23 1.37 1.48 1.58
0.68 0.72 0.71 0.74 0.86 0.95 1.05 1.17 1.29 1.42 1.55 1.50 1.28 1.17 1.16 1.24 1.30 1.28 1.10 0.93 0.83 0.90 0.79 0.72 0.86 1.25 1.33 1.10 1.02 0.95 0.88 0.87 0.88 0.95 1.05 1.17 1.27 1.40
0.57 0.64 0.67 0.74 0.84 0.92 1.02 1.07 1.14 1.19 1.37 1.41 1.28 1.22 1.21 1.27 1.37 1.31 1.10 1.03 0.76 0.71 0.72 0.75 0.87 1.39 1.73 1.50 1.23 1.12 0.96 0.86 0.79 0.83 0.92 0.98 1.02 1.09
0.46 0.51 0.57 0.66 0.76 0.88 0.94 1.02 1.12 1.22 1.32 1.39 1.36 1.35 1.35 1.34 1.38 1.41 1.21 1.04 0.83 0.58 0.65 0.72 0.90 1.37 1.92 2.09 1.71 1.44 1.22 1.04 0.91 0.83 0.82 0.82 0.79 0.77
0.45 0.45 0.44 0.50 0.62 0.69 0.75 0.90 1.12 1.29 1.32 1.37 1.38 1.39 1.39 1.46 1.40 1.30 1.21 1.06 0.87 0.68 0.69 0.71 0.95 1.59 2.16 2.46 2.29 1.75 1.34 1.12 0.96 0.85 0.81 0.76 0.71 0.66
0.54 0.51 0.42 0.39 0.44 0.50 0.58 0.69 0.88 1.13 1.29 1.35 1.37 1.36 1.35 1.40 1.37 1.30 1.28 1.24 1.10 0.80 0.75 0.81 1.10 1.91 2.48 2.72 2.62 1.92 1.34 1.12 1.00 0.91 0.85 0.79 0.71 0.65
0.58 0.58 0.46 0.39 0.47 0.54 0.55 0.57 0.67 0.85 1.12 1.35 1.42 1.32 1.38 1.45 1.47 1.45 1.36 1.35 1.26 0.94 0.89 1.02 1.31 1.91 2.37 2.77 2.69 2.01 1.50 1.22 1.10 1.01 0.94 0.85 0.74 0.65
0.49 0.52 0.57 0.61 0.52 0.52 0.56 0.72 0.88 0.97 1.03 1.10 1.29 1.31 1.33 1.33 1.27 1.28 1.29 1.31 1.20 0.96 0.96 1.21 1.43 1.84 2.18 2.61 2.57 1.97 1.53 1.30 1.19 1.08 0.94 0.83 0.73 0.65
0.43 0.43 0.46 0.55 0.53 0.57 0.72 0.96 1.16 1.31 1.16 1.12 1.20 1.34 1.34 1.18 1.00 1.06 1.30 1.40 1.25 1.00 0.94 1.18 1.41 1.61 1.90 2.21 2.16 1.85 1.52 1.32 1.17 1.03 0.91 0.79 0.71 0.68
0.50 0.49 0.53 0.54 0.56 0.69 0.83 1.12 1.34 1.45 1.26 1.20 1.33 1.47 1.40 1.28 1.18 1.21 1.41 1.39 1.26 1.19 1.00 1.07 1.23 1.35 1.73 1.88 1.71 1.53 1.45 1.41 1.27 1.13 0.99 0.82 0.67 0.61
0.53 0.60 0.65 0.65 0.62 0.73 0.90 1.09 1.31 1.37 1.31 1.29 1.32 1.37 1.39 1.40 1.28 1.25 1.27 1.22 1.20 1.19 0.96 1.05 1.25 1.34 1.57 1.72 1.64 1.51 1.35 1.32 1.29 1.34 1.29 1.05 0.78 0.64
0.61 0.64 0.65 0.64 0.66 0.80 0.93 1.14 1.34 1.46 1.37 1.24 1.14 1.11 1.13 1.19 1.16 1.03 0.97 0.94 0.97 1.02 0.95 1.02 1.31 1.46 1.45 1.43 1.56 1.49 1.41 1.38 1.31 1.34 1.38 1.26 1.05 0.92
0.53 0.68 0.67 0.62 0.76 1.05 1.23 1.34 1.50 1.57 1.40 1.15 1.07 0.99 0.94 0.92 0.89 0.91 0.87 0.79 0.75 0.75 0.70 0.79 1.07 1.24 1.28 1.31 1.40 1.37 1.47 1.65 1.52 1.47 1.39 1.26 1.16 1.03
0.43 0.62 0.74 0.78 0.94 1.24 1.46 1.56 1.62 1.54 1.31 1.10 0.98 0.91 0.84 0.82 0.83 0.81 0.82 0.79 0.80 0.81 0.72 0.69 0.81 1.00 1.15 1.16 1.24 1.33 1.42 1.80 1.80 1.57 1.43 1.39 1.28 1.16
0.38 0.56 0.75 0.86 1.06 1.29 1.43 1.44 1.39 1.30 1.21 1.05 0.92 0.85 0.84 0.82 0.81 0.76 0.76 0.71 0.74 0.75 0.75 0.74 0.76 0.81 0.89 0.97 1.13 1.26 1.42 1.62 1.66 1.45 1.32 1.39 1.39 1.22
0.42 0.64 0.84 0.94 1.09 1.21 1.29 1.26 1.17 1.09 1.02 0.94 0.88 0.80 0.77 0.75 0.76 0.70 0.65 0.64 0.68 0.67 0.64 0.63 0.62 0.62 0.69 0.84 1.03 1.13 1.20 1.38 1.41 1.25 1.07 1.16 1.36 1.30
0.47 0.68 0.85 0.99 1.09 1.11 1.12 1.07 1.02 0.97 0.88 0.82 0.79 0.75 0.68 0.66 0.65 0.60 0.56 0.57 0.57 0.54 0.50 0.46 0.43 0.43 0.54 0.86 1.07 1.11 1.06 1.10 1.13 1.09 1.01 1.00 1.22 1.31
0.54 0.70 0.83 0.87 0.93 0.97 0.96 0.96 0.93 0.86 0.78 0.75 0.77 0.74 0.66 0.60 0.55 0.53 0.51 0.50 0.49 0.44 0.39 0.36 0.35 0.39 0.48 0.70 1.05 1.19 1.03 0.84 0.80 0.85 0.85 0.88 1.02 1.10
0.56 0.67 0.73 0.76 0.80 0.83 0.82 0.80 0.79 0.76 0.70 0.67 0.68 0.70 0.68 0.61 0.53 0.46 0.42 0.36 0.36 0.36 0.37 0.39 0.38 0.32 0.32 0.40 0.67 0.90 0.92 0.85 0.71 0.65 0.64 0.70 0.73 0.68
0.52 0.61 0.63 0.63 0.63 0.65 0.63 0.58 0.59 0.61 0.59 0.61 0.61 0.61 0.61 0.55 0.48 0.41 0.36 0.34 0.33 0.31 0.31 0.32 0.29 0.25 0.27 0.37 0.54 0.70 0.73 0.66 0.58 0.53 0.53 0.51 0.49 0.56
0.46 0.49 0.52 0.52 0.48 0.47 0.49 0.49 0.50 0.55 0.57 0.57 0.55 0.53 0.50 0.45 0.38 0.33 0.30 0.28 0.26 0.25 0.27 0.29 0.27 0.26 0.27 0.31 0.40 0.46 0.48 0.43 0.39 0.41 0.50 0.55 0.52 0.58

GEFSNE_prec_meanprecacc_210.txt.gz
Total_Precipitation_Accumulation
1.06 1.11 1.15 1.20 1.25 1.25 1.30 1.41 1.59 1.58 1.40 1.18 1.08 1.10 1.17 1.23 1.42 1.27 1.21 1.18 1.02 0.93 0.91 0.95 0.99 1.02 1.11 1.23 1.32 1.39 1.40 1.40 1.42 1.52 1.67 1.80 1.93 2.06
0.94 0.94 0.96 1.02 1.18 1.29 1.36 1.45 1.57 1.65 1.59 1.28 1.12 1.10 1.16 1.19 1.40 1.24 1.23 1.29 1.07 0.89 0.83 0.92 0.98 0.97 1.02 1.06 1.07 1.11 1.17 1.21 1.23 1.30 1.43 1.54 1.68 1.85
0.80 0.82 0.88 0.95 1.04 1.11 1.22 1.36 1.55 1.71 1.74 1.47 1.22 1.14 1.19 1.25 1.30 1.21 1.12 1.04 0.94 0.91 0.76 0.80 1.03 1.19 1.10 1.01 0.96 0.96 0.98 1.02 1.07 1.15 1.28 1.41 1.51 1.61
0.71 0.74 0.73 0.76 0.88 0.96 1.06 1.19 1.33 1.46 1.59 1.54 1.31 1.20 1.19 1.28 1.35 1.34 1.14 0.97 0.86 0.93 0.81 0.74 0.88 1.26 1.34 1.11 1.04 0.97 0.92 0.90 0.91 0.98 1.09 1.22 1.31 1.44
0.60 0.66 0.69 0.77 0.86 0.94 1.04 1.09 1.17 1.22 1.40 1.45 1.32 1.25 1.25 1.30 1.41 1.36 1.14 1.07 0.79 0.74 0.74 0.77 0.89 1.40 1.74 1.52 1.25 1.14 0.99 0.90 0.82 0.86 0.95 1.02 1.07 1.13
0.49 0.53 0.59 0.69 0.79 0.91 0.97 1.04 1.15 1.25 1.35 1.43 1.40 1.39 1.39 1.37 1.42 1.46 1.28 1.10 0.87 0.61 0.68 0.76 0.94 1.39 1.94 2.12 1.74 1.47 1.25 1.08 0.94 0.86 0.85 0.85 0.82 0.80
0.48 0.48 0.46 0.51 0.63 0.71 0.77 0.92 1.15 1.33 1.36 1.41 1.42 1.44 1.45 1.51 1.45 1.36 1.31 1.15 0.93 0.73 0.74 0.75 0.98 1.62 2.18 2.48 2.31 1.77 1.36 1.16 1.01 0.89 0.84 0.79 0.73 0.68
0.56 0.53 0.43 0.41 0.46 0.52 0.59 0.70 0.91 1.17 1.32 1.39 1.41 1.41 1.41 1.47 1.44 1.37 1.38 1.35 1.20 0.87 0.81 0.85 1.13 1.94 2.51 2.74 2.64 1.94 1.35 1.14 1.04 0.95 0.89 0.81 0.73 0.67
0.60 0.60 0.49 0.41 0.50 0.56 0.56 0.58 0.69 0.87 1.15 1.37 1.45 1.34 1.41 1.49 1.52 1.52 1.44 1.44 1.35 1.02 0.94 1.05 1.33 1.93 2.38 2.79 2.71 2.03 1.51 1.23 1.12 1.04 0.96 0.88 0.76 0.67
0.50 0.54 0.60 0.64 0.56 0.54 0.58 0.73 0.89 0.98 1.06 1.13 1.32 1.34 1.36 1.37 1.33 1.36 1.38 1.39 1.27 1.01 1.00 1.23 1.44 1.85 2.20 2.63 2.58 1.98 1.54 1.31 1.20 1.09 0.96 0.84 0.75 0.67
0.44 0.44 0.48 0.57 0.55 0.60 0.74 0.98 1.18 1.34 1.20 1.17 1.24 1.38 1.39 1.24 1.07 1.13 1.37 1.45 1.29 1.04 0.97 1.20 1.43 1.63 1.92 2.23 2.18 1.87 1.53 1.33 1.17 1.04 0.92 0.80 0.72 0.69
0.51 0.50 0.54 0.55 0.58 0.72 0.86 1.15 1.38 1.48 1.30 1.23 1.37 1.50 1.44 1.32 1.24 1.27 1.46 1.43 1.29 1.22 1.04 1.10 1.26 1.38 1.76 1.91 1.74 1.54 1.46 1.43 1.28 1.14 1.00 0.83 0.68 0.62
0.54 0.61 0.66 0.66 0.64 0.75 0.92 1.12 1.34 1.40 1.34 1.31 1.34 1.39 1.41 1.42 1.32 1.29 1.31 1.26 1.24 1.21 0.99 1.08 1.29 1.37 1.60 1.76 1.67 1.54 1.37 1.33 1.30 1.35 1.30 1.06 0.80 0.66
0.62 0.65 0.66 0.67 0.69 0.83 0.97 1.18 1.37 1.48 1.39 1.26 1.16 1.13 1.15 1.21 1.18 1.06 1.00 0.98 1.01 1.05 0.97 1.06 1.36 1.51 1.49 1.47 1.60 1.53 1.43 1.39 1.33 1.36 1.39 1.27 1.07 0.94
0.54 0.69 0.69 0.64 0.78 1.07 1.25 1.36 1.52 1.59 1.42 1.17 1.08 1.01 0.95 0.94 0.92 0.93 0.90 0.83 0.79 0.79 0.74 0.85 1.13 1.30 1.33 1.35 1.42 1.40 1.50 1.67 1.54 1.49 1.41 1.28 1.18 1.05
0.44 0.64 0.76 0.80 0.96 1.25 1.47 1.57 1.63 1.56 1.33 1.12 1.00 0.92 0.85 0.84 0.86 0.85 0.87 0.83 0.84 0.85 0.75 0.73 0.86 1.05 1.19 1.20 1.27 1.36 1.44 1.82 1.82 1.59 1.46 1.41 1.30 1.18
0.39 0.57 0.77 0.87 1.08 1.30 1.44 1.45 1.40 1.31 1.23 1.06 0.93 0.86 0.85 0.84 0.84 0.80 0.80 0.75 0.78 0.78 0.78 0.76 0.78 0.84 0.92 1.00 1.15 1.28 1.43 1.64 1.68 1.47 1.35 1.43 1.42 1.25
0.43 0.66 0.85 0.95 1.11 1.23 1.31 1.28 1.20 1.11 1.03 0.95 0.89 0.81 0.79 0.78 0.79 0.74 0.69 0.67 0.71 0.69 0.66 0.65 0.64 0.65 0.72 0.85 1.05 1.16 1.22 1.41 1.43 1.29 1.12 1.21 1.41 1.34
0.49 0.70 0.87 1.00 1.11 1.14 1.15 1.11 1.05 1.00 0.91 0.84 0.80 0.76 0.71 0.69 0.69 0.64 0.59 0.60 0.59 0.56 0.51 0.48 0.45 0.44 0.56 0.88 1.08 1.13 1.08 1.12 1.16 1.12 1.06 1.06 1.27 1.35
0.56 0.73 0.85 0.89 0.96 1.00 0.99 0.98 0.95 0.88 0.81 0.77 0.79 0.77 0.69 0.63 0.57 0.55 0.53 0.52 0.51 0.45 0.40 0.37 0.38 0.42 0.51 0.72 1.06 1.20 1.04 0.85 0.82 0.87 0.88 0.93 1.07 1.15
0.58 0.69 0.75 0.79 0.82 0.85 0.85 0.83 0.82 0.78 0.72 0.69 0.70 0.72 0.71 0.63 0.55 0.48 0.44 0.38 0.37 0.37 0.39 0.41 0.40 0.34 0.34 0.43 0.69 0.91 0.93 0.87 0.73 0.68 0.68 0.75 0.78 0.73
0.54 0.62 0.65 0.64 0.65 0.68 0.66 0.61 0.62 0.63 0.61 0.62 0.62 0.62 0.63 0.58 0.50 0.43 0.38 0.35 0.34 0.31 0.32 0.33 0.30 0.27 0.29 0.39 0.57 0.72 0.74 0.68 0.61 0.57 0.57 0.55 0.53 0.61
0.47 0.51 0.54 0.54 0.50 0.49 0.51 0.51 0.53 0.57 0.58 0.58 0.56 0.54 0.52 0.46 0.40 0.35 0.31 0.29 0.27 0.26 0.28 0.30 0.29 0.28 0.30 0.34 0.43 0.49 0.50 0.45 0.41 0.44 0.54 0.59 0.56 0.63

GEFSNE_prec_meanprecacc_216.txt.gz
Total_Precipitation_Accumulation
1.09 1.14 1.18 1.23 1.28 1.29 1.33 1.44 1.62 1.60 1.40 1.19 1.09 1.11 1.17 1.24 1.43 1.29 1.23 1.22 1.07 0.98 0.97 1.00 1.03 1.06 1.15 1.29 1.38 1.44 1.45 1.46 1.48 1.57 1.72 1.86 2.01 2.13
0.95 0.96 0.98 1.04 1.21 1.31 1.38 1.48 1.61 1.68 1.61 1.28 1.13 1.11 1.17 1.20 1.41 1.26 1.25 1.32 1.11 0.95 0.89 0.98 1.04 1.02 1.05 1.09 1.11 1.15 1.23 1.27 1.29 1.35 1.47 1.59 1.74 1.91
0.81 0.84 0.89 0.97 1.06 1.12 1.24 1.38 1.58 1.74 1.77 1.48 1.23 1.15 1.19 1.26 1.30 1.22 1.14 1.06 0.97 0.96 0.83 0.88 1.10 1.26 1.16 1.05 0.99 0.99 1.02 1.07 1.12 1.20 1.32 1.45 1.55 1.65
0.73 0.77 0.75 0.78 0.90 0.98 1.09 1.21 1.36 1.49 1.62 1.56 1.33 1.21 1.20 1.29 1.36 1.35 1.16 1.00 0.89 0.97 0.87 0.81 0.95 1.33 1.40 1.18 1.09 1.01 0.94 0.92 0.93 1.01 1.13 1.25 1.35 1.48
0.62 0.69 0.72 0.80 0.89 0.96 1.07 1.12 1.20 1.25 1.43 1.48 1.35 1.27 1.26 1.31 1.42 1.37 1.16 1.09 0.82 0.78 0.78 0.81 0.94 1.47 1.81 1.59 1.31 1.18 1.02 0.92 0.83 0.87 0.97 1.05 1.09 1.16
0.52 0.56 0.62 0.72 0.82 0.94 1.00 1.08 1.20 1.31 1.41 1.48 1.44 1.41 1.40 1.38 1.44 1.48 1.30 1.13 0.90 0.65 0.72 0.80 0.98 1.45 2.00 2.17 1.78 1.51 1.28 1.10 0.97 0.88 0.86 0.86 0.84 0.82
0.51 0.51 0.49 0.54 0.66 0.74 0.81 0.97 1.21 1.40 1.41 1.45 1.45 1.46 1.47 1.53 1.46 1.38 1.34 1.20 0.98 0.77 0.79 0.80 1.04 1.68 2.24 2.54 2.36 1.82 1.40 1.18 1.03 0.91 0.86 0.81 0.75 0.70
0.58 0.55 0.45 0.43 0.48 0.54 0.62 0.74 0.96 1.21 1.36 1.42 1.44 1.44 1.43 1.48 1.46 1.39 1.41 1.39 1.25 0.93 0.87 0.92 1.19 2.00 2.57 2.81 2.71 2.00 1.40 1.17 1.06 0.97 0.91 0.84 0.76 0.69
0.61 0.62 0.50 0.42 0.51 0.58 0.58 0.60 0.72 0.91 1.18 1.40 1.47 1.37 1.44 1.52 1.55 1.55 1.46 1.47 1.40 1.08 1.02 1.14 1.40 1.99 2.45 2.85 2.77 2.09 1.57 1.28 1.16 1.07 0.99 0.90 0.80 0.70
0.51 0.56 0.61 0.65 0.58 0.57 0.61 0.76 0.92 1.01 1.09 1.16 1.34 1.36 1.39 1.40 1.36 1.39 1.41 1.42 1.31 1.07 1.07 1.32 1.51 1.90 2.24 2.67 2.64 2.03 1.59 1.37 1.25 1.13 0.99 0.88 0.79 0.71
0.45 0.45 0.49 0.58 0.57 0.62 0.77 1.00 1.21 1.36 1.23 1.20 1.28 1.42 1.43 1.28 1.11 1.18 1.41 1.50 1.34 1.08 1.02 1.26 1.48 1.67 1.96 2.28 2.22 1.91 1.56 1.38 1.22 1.09 0.97 0.84 0.76 0.73
0.51 0.50 0.55 0.56 0.59 0.74 0.88 1.17 1.40 1.50 1.32 1.26 1.40 1.54 1.47 1.35 1.27 1.31 1.50 1.47 1.34 1.28 1.08 1.15 1.31 1.42 1.80 1.94 1.77 1.57 1.48 1.45 1.32 1.18 1.03 0.86 0.71 0.65
0.54 0.62 0.67 0.68 0.65 0.76 0.93 1.14 1.37 1.42 1.36 1.33 1.36 1.41 1.44 1.44 1.35 1.32 1.35 1.31 1.29 1.26 1.02 1.12 1.33 1.41 1.63 1.79 1.69 1.56 1.38 1.35 1.34 1.39 1.33 1.09 0.82 0.69
0.62 0.65 0.67 0.68 0.71 0.85 0.98 1.20 1.40 1.51 1.41 1.28 1.18 1.15 1.17 1.23 1.21 1.09 1.04 1.01 1.04 1.08 1.00 1.09 1.39 1.54 1.52 1.50 1.63 1.57 1.46 1.42 1.36 1.40 1.44 1.31 1.09 0.96
0.54 0.70 0.69 0.65 0.80 1.08 1.26 1.38 1.54 1.61 1.45 1.20 1.11 1.03 0.98 0.97 0.95 0.97 0.93 0.85 0.81 0.81 0.76 0.87 1.16 1.34 1.38 1.41 1.48 1.46 1.55 1.72 1.59 1.53 1.45 1.32 1.20 1.07
0.45 0.64 0.77 0.80 0.96 1.26 1.48 1.58 1.64 1.58 1.36 1.16 1.03 0.95 0.87 0.86 0.88 0.87 0.89 0.85 0.86 0.87 0.77 0.76 0.89 1.08 1.23 1.24 1.32 1.42 1.50 1.88 1.89 1.63 1.49 1.44 1.32 1.19
0.40 0.58 0.78 0.88 1.08 1.31 1.45 1.46 1.41 1.33 1.25 1.09 0.95 0.88 0.87 0.85 0.85 0.83 0.84 0.79 0.81 0.80 0.80 0.79 0.80 0.87 0.95 1.03 1.18 1.31 1.46 1.67 1.72 1.50 1.37 1.45 1.44 1.28
0.44 0.67 0.86 0.96 1.12 1.24 1.32 1.29 1.21 1.13 1.06 0.98 0.91 0.83 0.80 0.80 0.82 0.78 0.73 0.71 0.74 0.71 0.68 0.67 0.65 0.67 0.74 0.88 1.08 1.18 1.24 1.43 1.45 1.31 1.13 1.22 1.43 1.36
0.50 0.71 0.88 1.02 1.12 1.16 1.17 1.13 1.07 1.01 0.93 0.87 0.83 0.79 0.74 0.73 0.73 0.67 0.62 0.63 0.62 0.58 0.54 0.51 0.47 0.46 0.58 0.91 1.11 1.15 1.10 1.14 1.18 1.14 1.07 1.07 1.29 1.37
0.56 0.73 0.86 0.91 0.97 1.02 1.01 1.01 0.98 0.91 0.83 0.79 0.82 0.81 0.72 0.65 0.59 0.57 0.56 0.54 0.53 0.47 0.43 0.41 0.40 0.44 0.53 0.75 1.09 1.22 1.06 0.87 0.83 0.88 0.89 0.94 1.09 1.16
0.58 0.69 0.76 0.80 0.84 0.88 0.88 0.86 0.85 0.82 0.75 0.72 0.73 0.75 0.73 0.65 0.56 0.50 0.45 0.39 0.38 0.39 0.41 0.43 0.42 0.37 0.37 0.45 0.71 0.92 0.95 0.89 0.75 0.70 0.68 0.76 0.79 0.74
0.54 0.62 0.65 0.65 0.67 0.70 0.68 0.63 0.65 0.66 0.65 0.66 0.65 0.65 0.65 0.59 0.51 0.44 0.39 0.36 0.35 0.32 0.33 0.35 0.32 0.29 0.32 0.43 0.60 0.74 0.76 0.70 0.63 0.59 0.57 0.56 0.54 0.63
0.47 0.51 0.54 0.55 0.51 0.50 0.53 0.53 0.56 0.60 0.62 0.62 0.59 0.56 0.53 0.47 0.40 0.35 0.32 0.29 0.28 0.27 0.28 0.32 0.31 0.30 0.32 0.38 0.48 0.54 0.53 0.48 0.43 0.45 0.55 0.60 0.57 0.64

GEFSNE_prec_meanprecacc_222.txt.gz
Total_Precipitation_Accumulation
1.14 1.19 1.23 1.27 1.33 1.34 1.39 1.49 1.67 1.65 1.45 1.24 1.14 1.15 1.21 1.27 1.46 1.30 1.25 1.23 1.08 0.99 0.98 1.02 1.06 1.09 1.18 1.32 1.42 1.47 1.49 1.50 1.53 1.61 1.76 1.91 2.07 2.20
0.99 1.00 1.01 1.07 1.25 1.36 1.43 1.53 1.66 1.72 1.64 1.31 1.15 1.13 1.19 1.21 1.42 1.28 1.27 1.33 1.12 0.95 0.89 1.00 1.07 1.06 1.09 1.12 1.14 1.20 1.27 1.31 1.33 1.39 1.50 1.62 1.77 1.95
0.85 0.87 0.92 0.99 1.09 1.17 1.29 1.43 1.62 1.78 1.81 1.51 1.25 1.17 1.21 1.28 1.32 1.24 1.15 1.08 0.99 0.97 0.84 0.88 1.11 1.29 1.20 1.09 1.03 1.02 1.07 1.12 1.17 1.24 1.36 1.49 1.58 1.68
0.76 0.80 0.78 0.81 0.93 1.02 1.14 1.26 1.40 1.53 1.66 1.59 1.35 1.24 1.22 1.31 1.38 1.36 1.17 1.01 0.91 0.98 0.88 0.82 0.96 1.35 1.44 1.22 1.13 1.05 0.98 0.98 0.99 1.06 1.17 1.29 1.38 1.51
0.65 0.72 0.74 0.82 0.91 1.00 1.11 1.16 1.24 1.29 1.47 1.51 1.37 1.30 1.28 1.32 1.44 1.38 1.17 1.11 0.83 0.79 0.80 0.82 0.95 1.48 1.84 1.62 1.35 1.23 1.07 0.96 0.87 0.91 1.02 1.10 1.14 1.21
0.55 0.59 0.65 0.75 0.86 0.98 1.05 1.14 1.26 1.35 1.44 1.52 1.47 1.44 1.43 1.40 1.46 1.50 1.32 1.15 0.92 0.66 0.74 0.81 0.99 1.46 2.02 2.20 1.81 1.54 1.32 1.16 1.02 0.92 0.91 0.92 0.89 0.87
0.54 0.54 0.51 0.57 0.68 0.78 0.85 1.04 1.29 1.46 1.46 1.50 1.50 1.50 1.50 1.56 1.49 1.41 1.37 1.24 1.02 0.80 0.81 0.82 1.06 1.70 2.27 2.56 2.39 1.85 1.43 1.22 1.08 0.96 0.91 0.86 0.80 0.74
0.61 0.57 0.47 0.44 0.49 0.55 0.64 0.78 1.01 1.26 1.40 1.47 1.48 1.48 1.46 1.52 1.50 1.43 1.44 1.43 1.28 0.95 0.89 0.95 1.23 2.04 2.62 2.85 2.75 2.04 1.44 1.22 1.11 1.01 0.94 0.87 0.80 0.73
0.63 0.64 0.52 0.43 0.52 0.59 0.60 0.63 0.74 0.93 1.21 1.44 1.51 1.40 1.48 1.56 1.60 1.59 1.51 1.52 1.44 1.12 1.05 1.17 1.44 2.04 2.50 2.91 2.82 2.13 1.61 1.32 1.20 1.11 1.03 0.94 0.83 0.74
0.53 0.58 0.64 0.67 0.59 0.59 0.64 0.79 0.95 1.04 1.12 1.18 1.37 1.40 1.43 1.45 1.41 1.44 1.46 1.47 1.36 1.11 1.11 1.37 1.56 1.96 2.31 2.76 2.71 2.08 1.64 1.41 1.29 1.18 1.04 0.93 0.83 0.75
0.46 0.46 0.51 0.60 0.58 0.63 0.79 1.03 1.23 1.39 1.26 1.23 1.31 1.46 1.48 1.32 1.15 1.22 1.46 1.55 1.40 1.14 1.07 1.31 1.53 1.73 2.03 2.37 2.31 1.98 1.63 1.44 1.28 1.14 1.02 0.90 0.82 0.78
0.53 0.52 0.56 0.57 0.60 0.74 0.90 1.20 1.43 1.54 1.36 1.30 1.43 1.57 1.51 1.39 1.31 1.35 1.54 1.52 1.40 1.34 1.14 1.21 1.37 1.49 1.89 2.02 1.85 1.64 1.54 1.50 1.36 1.22 1.07 0.91 0.77 0.70
0.55 0.63 0.68 0.69 0.66 0.77 0.95 1.16 1.39 1.45 1.39 1.37 1.40 1.44 1.47 1.48 1.38 1.36 1.39 1.35 1.34 1.31 1.07 1.18 1.39 1.48 1.71 1.86 1.76 1.61 1.43 1.39 1.37 1.42 1.36 1.12 0.85 0.72
0.63 0.67 0.68 0.69 0.71 0.85 0.99 1.20 1.41 1.54 1.44 1.30 1.21 1.18 1.19 1.26 1.24 1.12 1.06 1.05 1.09 1.14 1.05 1.14 1.45 1.60 1.58 1.56 1.68 1.61 1.52 1.48 1.40 1.43 1.48 1.34 1.12 0.99
0.55 0.71 0.71 0.65 0.80 1.09 1.27 1.39 1.55 1.63 1.47 1.23 1.14 1.06 1.01 0.99 0.98 1.01 0.97 0.91 0.86 0.86 0.80 0.92 1.22 1.39 1.43 1.45 1.52 1.50 1.61 1.79 1.65 1.58 1.49 1.36 1.24 1.10
0.45 0.65 0.77 0.81 0.97 1.27 1.49 1.59 1.65 1.59 1.38 1.18 1.07 0.98 0.90 0.89 0.91 0.91 0.95 0.92 0.92 0.92 0.82 0.80 0.94 1.14 1.29 1.29 1.36 1.46 1.55 1.93 1.94 1.68 1.54 1.49 1.38 1.23
0.41 0.59 0.79 0.88 1.09 1.32 1.45 1.47 1.43 1.35 1.27 1.11 0.99 0.92 0.90 0.89 0.89 0.88 0.90 0.86 0.87 0.86 0.86 0.84 0.86 0.93 1.00 1.08 1.24 1.36 1.51 1.71 1.76 1.54 1.41 1.50 1.50 1.33
0.45 0.68 0.88 0.98 1.13 1.25 1.33 1.30 1.23 1.15 1.08 1.01 0.96 0.89 0.87 0.87 0.89 0.84 0.79 0.78 0.82 0.78 0.74 0.72 0.71 0.73 0.81 0.94 1.12 1.22 1.29 1.48 1.50 1.35 1.17 1.27 1.47 1.40
0.50 0.72 0.90 1.03 1.13 1.17 1.19 1.16 1.10 1.04 0.96 0.91 0.88 0.84 0.80 0.80 0.79 0.74 0.68 0.68 0.67 0.64 0.60 0.56 0.52 0.52 0.63 0.96 1.15 1.18 1.14 1.19 1.24 1.20 1.12 1.13 1.34 1.41
0.58 0.75 0.88 0.93 1.00 1.05 1.04 1.05 1.02 0.94 0.85 0.83 0.86 0.84 0.76 0.69 0.64 0.63 0.62 0.59 0.56 0.51 0.47 0.45 0.44 0.48 0.58 0.81 1.14 1.25 1.09 0.92 0.91 0.97 0.95 1.00 1.14 1.20
0.61 0.72 0.78 0.82 0.86 0.90 0.90 0.88 0.87 0.83 0.76 0.74 0.75 0.78 0.76 0.68 0.60 0.54 0.50 0.45 0.43 0.43 0.45 0.47 0.46 0.40 0.40 0.49 0.75 0.97 1.00 0.94 0.82 0.78 0.76 0.82 0.86 0.78
0.55 0.63 0.66 0.66 0.68 0.72 0.69 0.65 0.66 0.67 0.66 0.67 0.67 0.67 0.68 0.62 0.54 0.48 0.43 0.41 0.40 0.37 0.36 0.38 0.35 0.32 0.36 0.48 0.66 0.80 0.81 0.74 0.69 0.65 0.62 0.60 0.58 0.67
0.48 0.51 0.55 0.56 0.52 0.51 0.54 0.54 0.56 0.61 0.63 0.62 0.60 0.58 0.55 0.50 0.43 0.38 0.35 0.33 0.32 0.31 0.32 0.35 0.35 0.34 0.37 0.43 0.53 0.59 0.58 0.52 0.48 0.50 0.58 0.62 0.58 0.65

GEFSNE_prec_meanprecacc_228.txt.gz
Total_Precipitation_Accumulation
1.19 1.25 1.29 1.33 1.40 1.40 1.46 1.57 1.75 1.73 1.51 1.30 1.20 1.21 1.27 1.36 1.56 1.39 1.31 1.29 1.12 1.01 0.99 1.03 1.07 1.09 1.19 1.32 1.43 1.49 1.52 1.54 1.57 1.65 1.80 1.95 2.11 2.24
1.04 1.07 1.09 1.15 1.33 1.44 1.51 1.61 1.75 1.81 1.71 1.36 1.20 1.17 1.23 1.27 1.50 1.35 1.34 1.41 1.19 1.00 0.92 1.01 1.07 1.06 1.10 1.13 1.15 1.21 1.29 1.33 1.36 1.43 1.54 1.65 1.81 1.99
0.90 0.93 0.97 1.05 1.16 1.23 1.36 1.50 1.69 1.85 1.87 1.55 1.29 1.21 1.26 1.33 1.37 1.30 1.21 1.14 1.07 1.07 0.92 0.93 1.14 1.30 1.21 1.10 1.04 1.04 1.09 1.15 1.20 1.27 1.40 1.52 1.61 1.72
0.81 0.85 0.82 0.87 0.99 1.09 1.21 1.32 1.47 1.61 1.73 1.64 1.40 1.28 1.27 1.35 1.42 1.41 1.21 1.06 0.97 1.04 0.94 0.89 1.01 1.38 1.46 1.23 1.14 1.06 1.00 1.00 1.03 1.11 1.22 1.33 1.41 1.54
0.70 0.77 0.80 0.89 0.99 1.08 1.19 1.23 1.31 1.36 1.55 1.57 1.41 1.34 1.32 1.35 1.48 1.42 1.20 1.15 0.86 0.82 0.84 0.87 0.99 1.53 1.87 1.64 1.37 1.25 1.09 0.98 0.90 0.96 1.06 1.14 1.19 1.24
0.60 0.65 0.72 0.85 0.95 1.07 1.13 1.21 1.33 1.43 1.51 1.57 1.51 1.48 1.47 1.44 1.51 1.55 1.38 1.21 0.96 0.69 0.77 0.85 1.03 1.50 2.06 2.22 1.83 1.55 1.34 1.17 1.03 0.95 0.94 0.95 0.93 0.91
0.62 0.61 0.59 0.65 0.77 0.85 0.92 1.11 1.36 1.53 1.53 1.56 1.55 1.55 1.55 1.61 1.54 1.46 1.43 1.29 1.06 0.84 0.86 0.85 1.09 1.74 2.31 2.59 2.41 1.86 1.44 1.24 1.10 0.99 0.94 0.89 0.85 0.80
0.66 0.63 0.54 0.51 0.54 0.60 0.69 0.83 1.06 1.30 1.45 1.53 1.53 1.53 1.51 1.57 1.55 1.48 1.49 1.48 1.32 0.99 0.94 0.99 1.28 2.10 2.67 2.89 2.77 2.05 1.45 1.23 1.13 1.04 0.97 0.90 0.83 0.78
0.70 0.72 0.58 0.47 0.56 0.64 0.66 0.66 0.76 0.95 1.24 1.48 1.56 1.45 1.53 1.61 1.65 1.64 1.56 1.57 1.49 1.17 1.10 1.22 1.50 2.11 2.56 2.94 2.84 2.14 1.62 1.34 1.23 1.14 1.06 0.97 0.87 0.78
0.60 0.65 0.71 0.73 0.63 0.62 0.67 0.82 0.98 1.06 1.14 1.20 1.40 1.44 1.47 1.49 1.45 1.49 1.51 1.52 1.40 1.15 1.17 1.42 1.61 2.01 2.36 2.81 2.74 2.10 1.65 1.43 1.31 1.21 1.08 0.97 0.88 0.80
0.51 0.51 0.55 0.63 0.61 0.66 0.82 1.06 1.26 1.42 1.29 1.25 1.34 1.49 1.50 1.34 1.17 1.25 1.50 1.60 1.44 1.18 1.11 1.36 1.57 1.76 2.08 2.43 2.35 2.02 1.66 1.47 1.31 1.17 1.07 0.95 0.86 0.83
0.56 0.54 0.58 0.59 0.61 0.76 0.93 1.23 1.45 1.56 1.40 1.33 1.46 1.60 1.53 1.42 1.34 1.38 1.58 1.57 1.45 1.39 1.19 1.26 1.42 1.54 1.93 2.07 1.91 1.68 1.58 1.54 1.40 1.25 1.11 0.96 0.82 0.76
0.57 0.64 0.69 0.70 0.67 0.78 0.96 1.19 1.41 1.48 1.43 1.39 1.42 1.47 1.51 1.52 1.42 1.40 1.43 1.40 1.40 1.38 1.13 1.24 1.45 1.55 1.77 1.91 1.81 1.66 1.48 1.44 1.41 1.46 1.40 1.15 0.90 0.77
0.64 0.68 0.70 0.71 0.72 0.86 1.00 1.22 1.43 1.56 1.46 1.33 1.24 1.21 1.23 1.29 1.27 1.15 1.10 1.09 1.14 1.19 1.10 1.20 1.51 1.67 1.66 1.62 1.74 1.67 1.57 1.54 1.46 1.48 1.53 1.39 1.16 1.05
0.57 0.73 0.72 0.67 0.82 1.11 1.28 1.41 1.57 1.65 1.50 1.26 1.18 1.10 1.05 1.03 1.01 1.04 1.00 0.94 0.90 0.89 0.83 0.97 1.28 1.47 1.51 1.52 1.59 1.57 1.68 1.86 1.72 1.64 1.55 1.42 1.29 1.15
0.47 0.66 0.79 0.83 0.99 1.28 1.51 1.62 1.68 1.62 1.40 1.21 1.10 1.03 0.95 0.94 0.95 0.95 0.98 0.95 0.96 0.96 0.86 0.86 1.00 1.22 1.36 1.36 1.43 1.53 1.62 2.01 2.01 1.76 1.60 1.55 1.43 1.29
0.42 0.61 0.81 0.91 1.11 1.34 1.48 1.50 1.46 1.38 1.30 1.14 1.03 0.97 0.95 0.94 0.94 0.92 0.93 0.89 0.91 0.91 0.91 0.90 0.93 1.01 1.08 1.15 1.30 1.42 1.57 1.79 1.83 1.62 1.48 1.56 1.56 1.39
0.45 0.69 0.90 1.00 1.15 1.27 1.35 1.33 1.26 1.19 1.12 1.06 1.01 0.94 0.92 0.92 0.94 0.89 0.84 0.84 0.87 0.83 0.78 0.77 0.76 0.80 0.89 1.04 1.20 1.29 1.36 1.54 1.57 1.42 1.24 1.33 1.53 1.47
0.52 0.74 0.92 1.06 1.16 1.19 1.21 1.18 1.13 1.09 1.01 0.96 0.93 0.89 0.85 0.85 0.85 0.79 0.73 0.72 0.72 0.69 0.63 0.60 0.57 0.58 0.71 1.05 1.23 1.25 1.21 1.26 1.31 1.27 1.19 1.20 1.40 1.49
0.61 0.78 0.90 0.96 1.03 1.08 1.08 1.07 1.04 0.97 0.90 0.88 0.91 0.89 0.81 0.74 0.68 0.66 0.65 0.62 0.60 0.55 0.51 0.49 0.48 0.53 0.65 0.89 1.23 1.32 1.14 0.98 0.98 1.05 1.04 1.07 1.21 1.26
0.63 0.73 0.80 0.84 0.89 0.93 0.93 0.91 0.90 0.87 0.81 0.79 0.80 0.82 0.80 0.71 0.63 0.56 0.53 0.47 0.46 0.47 0.50 0.52 0.51 0.44 0.44 0.55 0.82 1.05 1.06 0.99 0.90 0.87 0.82 0.89 0.92 0.85
0.57 0.65 0.67 0.68 0.70 0.73 0.71 0.67 0.69 0.70 0.69 0.71 0.70 0.70 0.70 0.64 0.56 0.50 0.45 0.43 0.44 0.41 0.41 0.42 0.39 0.36 0.41 0.53 0.73 0.89 0.90 0.81 0.75 0.70 0.66 0.64 0.64 0.73
0.49 0.52 0.56 0.57 0.53 0.52 0.55 0.56 0.58 0.63 0.64 0.65 0.63 0.61 0.58 0.52 0.44 0.39 0.37 0.36 0.35 0.34 0.36 0.41 0.39 0.39 0.42 0.49 0.61 0.68 0.66 0.59 0.55 0.55 0.63 0.66 0.62 0.69

GEFSNE_prec_meanprecacc_234.txt.gz
Total_Precipitation_Accumulation
1.23 1.29 1.33 1.38 1.46 1.48 1.53 1.64 1.82 1.78 1.55 1.32 1.22 1.24 1.31 1.39 1.59 1.42 1.36 1.34 1.18 1.09 1.06 1.08 1.11 1.13 1.22 1.34 1.44 1.51 1.53 1.55 1.59 1.69 1.83 1.98 2.14 2.27
1.07 1.09 1.12 1.18 1.37 1.49 1.56 1.66 1.80 1.86 1.75 1.39 1.21 1.18 1.26 1.30 1.54 1.41 1.40 1.46 1.25 1.07 0.99 1.08 1.13 1.10 1.13 1.15 1.17 1.23 1.30 1.34 1.37 1.46 1.60 1.70 1.84 2.02
0.94 0.96 1.00 1.08 1.19 1.28 1.40 1.54 1.72 1.88 1.90 1.58 1.31 1.22 1.29 1.36 1.41 1.36 1.28 1.20 1.11 1.12 0.99 1.00 1.21 1.37 1.26 1.13 1.07 1.06 1.10 1.16 1.21 1.28 1.43 1.59 1.68 1.77
0.84 0.90 0.86 0.89 1.02 1.12 1.25 1.35 1.50 1.64 1.77 1.68 1.42 1.30 1.30 1.38 1.45 1.46 1.28 1.12 1.03 1.09 0.99 0.95 1.10 1.47 1.54 1.30 1.19 1.10 1.02 1.01 1.04 1.12 1.23 1.36 1.48 1.64
0.74 0.83 0.87 0.95 1.03 1.12 1.25 1.29 1.37 1.42 1.61 1.62 1.45 1.37 1.35 1.38 1.51 1.45 1.24 1.20 0.92 0.87 0.88 0.91 1.05 1.61 1.96 1.72 1.43 1.30 1.12 1.00 0.93 0.98 1.08 1.18 1.22 1.29
0.65 0.70 0.77 0.90 1.02 1.16 1.21 1.29 1.41 1.51 1.59 1.64 1.56 1.52 1.50 1.47 1.54 1.58 1.40 1.24 1.00 0.74 0.81 0.89 1.07 1.55 2.11 2.27 1.88 1.60 1.38 1.21 1.06 0.96 0.96 0.98 0.96 0.94
0.68 0.66 0.63 0.70 0.83 0.93 1.00 1.19 1.44 1.60 1.60 1.62 1.59 1.59 1.58 1.65 1.57 1.48 1.45 1.31 1.09 0.88 0.89 0.88 1.11 1.76 2.33 2.62 2.43 1.88 1.47 1.27 1.13 1.01 0.96 0.92 0.88 0.83
0.72 0.70 0.59 0.57 0.60 0.66 0.74 0.88 1.11 1.36 1.51 1.58 1.58 1.57 1.54 1.61 1.59 1.51 1.51 1.49 1.34 1.01 0.97 1.02 1.30 2.13 2.70 2.91 2.79 2.07 1.47 1.25 1.15 1.06 0.98 0.92 0.85 0.80
0.75 0.77 0.64 0.53 0.62 0.69 0.70 0.71 0.80 0.98 1.28 1.53 1.60 1.49 1.56 1.65 1.69 1.68 1.58 1.58 1.50 1.18 1.12 1.24 1.51 2.13 2.58 2.97 2.86 2.16 1.64 1.35 1.24 1.16 1.08 0.99 0.90 0.81
0.64 0.70 0.75 0.76 0.66 0.65 0.70 0.84 0.99 1.07 1.15 1.23 1.43 1.46 1.49 1.51 1.48 1.51 1.53 1.53 1.41 1.16 1.18 1.43 1.62 2.02 2.37 2.83 2.76 2.11 1.67 1.44 1.32 1.23 1.10 0.99 0.90 0.83
0.54 0.53 0.57 0.65 0.62 0.67 0.83 1.07 1.27 1.43 1.30 1.27 1.36 1.52 1.52 1.36 1.19 1.27 1.52 1.60 1.45 1.19 1.12 1.37 1.58 1.78 2.10 2.44 2.36 2.03 1.68 1.49 1.33 1.19 1.09 0.98 0.88 0.85
0.57 0.56 0.60 0.61 0.62 0.77 0.94 1.24 1.47 1.58 1.42 1.35 1.48 1.62 1.55 1.43 1.36 1.40 1.59 1.59 1.46 1.39 1.19 1.27 1.43 1.56 1.95 2.09 1.92 1.70 1.60 1.56 1.42 1.27 1.13 0.99 0.86 0.79
0.57 0.66 0.72 0.73 0.69 0.79 0.98 1.21 1.43 1.50 1.44 1.40 1.43 1.48 1.53 1.54 1.44 1.41 1.44 1.42 1.42 1.39 1.15 1.27 1.48 1.57 1.80 1.93 1.83 1.68 1.50 1.45 1.43 1.48 1.42 1.17 0.93 0.81
0.65 0.69 0.72 0.74 0.75 0.87 1.01 1.23 1.44 1.57 1.48 1.34 1.25 1.22 1.24 1.30 1.28 1.17 1.12 1.11 1.16 1.21 1.13 1.23 1.54 1.70 1.69 1.65 1.77 1.70 1.60 1.57 1.49 1.51 1.56 1.42 1.19 1.09
0.57 0.73 0.73 0.68 0.83 1.12 1.29 1.42 1.58 1.66 1.51 1.27 1.19 1.11 1.06 1.04 1.02 1.05 1.02 0.96 0.92 0.90 0.85 0.99 1.30 1.50 1.55 1.55 1.62 1.61 1.72 1.89 1.75 1.67 1.59 1.45 1.32 1.17
0.47 0.66 0.79 0.83 1.00 1.30 1.52 1.63 1.69 1.63 1.41 1.22 1.11 1.04 0.96 0.95 0.97 0.97 1.00 0.97 0.97 0.97 0.87 0.88 1.04 1.25 1.40 1.39 1.46 1.56 1.65 2.04 2.04 1.79 1.64 1.58 1.45 1.30
0.42 0.61 0.82 0.92 1.12 1.35 1.49 1.51 1.47 1.39 1.31 1.15 1.04 0.99 0.97 0.96 0.96 0.94 0.96 0.92 0.93 0.92 0.93 0.92 0.96 1.04 1.11 1.18 1.33 1.44 1.59 1.81 1.85 1.65 1.53 1.60 1.58 1.40
0.46 0.70 0.91 1.01 1.16 1.28 1.37 1.34 1.27 1.20 1.14 1.07 1.03 0.96 0.94 0.94 0.96 0.92 0.87 0.86 0.90 0.86 0.81 0.79 0.79 0.83 0.92 1.07 1.23 1.31 1.37 1.56 1.60 1.47 1.29 1.37 1.55 1.49
0.53 0.75 0.93 1.07 1.17 1.20 1.23 1.20 1.15 1.10 1.02 0.97 0.95 0.91 0.88 0.88 0.88 0.82 0.76 0.76 0.75 0.71 0.66 0.62 0.60 0.61 0.75 1.08 1.26 1.27 1.23 1.28 1.34 1.31 1.23 1.23 1.42 1.52
0.62 0.78 0.91 0.97 1.04 1.09 1.09 1.09 1.06 0.99 0.92 0.89 0.92 0.91 0.84 0.78 0.72 0.70 0.68 0.65 0.63 0.58 0.55 0.52 0.51 0.57 0.68 0.92 1.26 1.36 1.17 1.01 1.02 1.11 1.10 1.12 1.26 1.32
0.65 0.76 0.82 0.86 0.90 0.94 0.94 0.92 0.92 0.89 0.83 0.81 0.81 0.83 0.81 0.72 0.64 0.58 0.54 0.48 0.47 0.49 0.52 0.54 0.53 0.46 0.46 0.57 0.85 1.08 1.09 1.04 0.96 0.94 0.89 0.95 0.98 0.91
0.60 0.68 0.71 0.70 0.72 0.75 0.73 0.69 0.70 0.72 0.70 0.72 0.72 0.72 0.72 0.66 0.58 0.51 0.46 0.44 0.44 0.42 0.42 0.43 0.40 0.38 0.42 0.55 0.75 0.92 0.93 0.84 0.80 0.76 0.71 0.69 0.69 0.78
0.51 0.55 0.58 0.59 0.55 0.55 0.57 0.57 0.60 0.65 0.67 0.67 0.64 0.62 0.59 0.53 0.45 0.40 0.38 0.36 0.35 0.35 0.37 0.42 0.41 0.41 0.43 0.50 0.63 0.71 0.69 0.63 0.59 0.60 0.66 0.69 0.65 0.72

GEFSNE_prec_meanprecacc_240.txt.gz
Total_Precipitation_Accumulation
1.27 1.34 1.38 1.42 1.51 1.52 1.57 1.68 1.86 1.82 1.60 1.38 1.26 1.28 1.35 1.42 1.62 1.45 1.38 1.36 1.21 1.13 1.11 1.12 1.14 1.17 1.26 1.38 1.47 1.54 1.56 1.58 1.62 1.72 1.85 2.00 2.18 2.31
1.13 1.16 1.19 1.24 1.42 1.53 1.61 1.71 1.85 1.90 1.79 1.43 1.26 1.22 1.29 1.33 1.57 1.44 1.43 1.49 1.28 1.10 1.03 1.12 1.17 1.15 1.16 1.18 1.19 1.24 1.32 1.36 1.39 1.49 1.62 1.73 1.86 2.04
1.01 1.03 1.07 1.14 1.24 1.32 1.45 1.57 1.76 1.93 1.94 1.62 1.35 1.25 1.31 1.39 1.44 1.39 1.31 1.22 1.14 1.16 1.02 1.04 1.25 1.42 1.32 1.17 1.09 1.08 1.12 1.17 1.22 1.30 1.45 1.61 1.70 1.79
0.91 0.95 0.90 0.93 1.05 1.15 1.27 1.37 1.52 1.67 1.80 1.72 1.46 1.34 1.32 1.41 1.49 1.50 1.31 1.15 1.06 1.12 1.02 0.98 1.14 1.51 1.58 1.35 1.23 1.13 1.05 1.04 1.07 1.14 1.26 1.38 1.51 1.66
0.78 0.87 0.89 0.98 1.05 1.14 1.26 1.31 1.39 1.44 1.64 1.65 1.49 1.42 1.38 1.41 1.55 1.49 1.28 1.24 0.96 0.92 0.93 0.95 1.09 1.67 2.02 1.77 1.48 1.35 1.17 1.04 0.96 1.00 1.10 1.20 1.24 1.31
0.68 0.72 0.79 0.93 1.05 1.18 1.24 1.31 1.44 1.54 1.62 1.68 1.61 1.59 1.56 1.54 1.60 1.64 1.46 1.30 1.08 0.81 0.88 0.95 1.13 1.61 2.21 2.36 1.94 1.66 1.43 1.26 1.10 0.99 0.98 1.00 0.98 0.96
0.71 0.70 0.67 0.74 0.87 0.97 1.03 1.23 1.49 1.67 1.67 1.70 1.66 1.65 1.65 1.71 1.63 1.55 1.51 1.36 1.15 0.95 0.97 0.94 1.17 1.80 2.41 2.72 2.52 1.94 1.52 1.32 1.17 1.05 0.99 0.94 0.90 0.85
0.76 0.74 0.64 0.62 0.65 0.71 0.79 0.93 1.17 1.44 1.60 1.66 1.65 1.63 1.60 1.66 1.64 1.56 1.55 1.53 1.38 1.05 1.02 1.08 1.36 2.17 2.74 2.97 2.87 2.14 1.52 1.29 1.19 1.09 1.02 0.95 0.88 0.83
0.77 0.79 0.66 0.57 0.66 0.74 0.75 0.75 0.84 1.04 1.35 1.59 1.64 1.52 1.60 1.68 1.73 1.73 1.63 1.62 1.54 1.22 1.16 1.29 1.57 2.18 2.63 3.01 2.91 2.21 1.68 1.39 1.27 1.19 1.10 1.03 0.94 0.83
0.67 0.72 0.77 0.78 0.68 0.69 0.74 0.88 1.03 1.11 1.19 1.26 1.45 1.48 1.50 1.52 1.49 1.54 1.57 1.58 1.45 1.21 1.23 1.48 1.66 2.06 2.40 2.86 2.79 2.15 1.70 1.47 1.35 1.25 1.13 1.01 0.93 0.86
0.56 0.55 0.58 0.66 0.64 0.69 0.85 1.09 1.29 1.45 1.32 1.28 1.37 1.53 1.53 1.37 1.21 1.29 1.54 1.63 1.47 1.20 1.15 1.40 1.61 1.81 2.13 2.47 2.38 2.05 1.70 1.50 1.35 1.21 1.11 1.00 0.90 0.87
0.60 0.58 0.62 0.62 0.64 0.79 0.96 1.26 1.49 1.60 1.43 1.36 1.49 1.63 1.56 1.44 1.37 1.41 1.60 1.60 1.47 1.40 1.20 1.29 1.44 1.57 1.96 2.10 1.93 1.71 1.61 1.58 1.44 1.29 1.15 1.00 0.88 0.80
0.59 0.67 0.73 0.74 0.70 0.80 0.99 1.22 1.45 1.51 1.45 1.41 1.44 1.49 1.53 1.55 1.45 1.42 1.45 1.43 1.43 1.40 1.16 1.28 1.49 1.58 1.81 1.94 1.83 1.68 1.51 1.46 1.44 1.50 1.44 1.19 0.95 0.83
0.66 0.70 0.73 0.75 0.75 0.88 1.02 1.24 1.46 1.59 1.49 1.35 1.26 1.23 1.25 1.31 1.29 1.17 1.13 1.12 1.17 1.22 1.13 1.24 1.55 1.71 1.70 1.67 1.78 1.70 1.61 1.58 1.50 1.53 1.58 1.45 1.21 1.10
0.58 0.74 0.75 0.71 0.85 1.12 1.30 1.44 1.60 1.68 1.52 1.29 1.20 1.12 1.07 1.05 1.03 1.05 1.03 0.97 0.93 0.91 0.86 0.99 1.31 1.51 1.55 1.56 1.63 1.62 1.73 1.90 1.76 1.68 1.60 1.47 1.33 1.19
0.48 0.68 0.83 0.89 1.04 1.32 1.54 1.65 1.71 1.65 1.43 1.24 1.13 1.05 0.97 0.96 0.98 0.97 1.01 0.98 0.98 0.98 0.89 0.90 1.05 1.26 1.40 1.40 1.48 1.57 1.66 2.05 2.05 1.80 1.66 1.60 1.47 1.32
0.44 0.64 0.85 0.97 1.16 1.38 1.52 1.54 1.50 1.42 1.34 1.18 1.06 1.01 0.98 0.97 0.97 0.95 0.97 0.93 0.95 0.94 0.95 0.94 0.97 1.05 1.12 1.19 1.35 1.47 1.62 1.83 1.88 1.68 1.57 1.63 1.60 1.42
0.48 0.71 0.92 1.04 1.19 1.31 1.41 1.38 1.31 1.24 1.18 1.11 1.05 0.99 0.96 0.95 0.97 0.93 0.88 0.87 0.91 0.87 0.82 0.81 0.80 0.84 0.94 1.09 1.25 1.34 1.40 1.59 1.63 1.51 1.34 1.40 1.58 1.51
0.54 0.76 0.94 1.09 1.18 1.21 1.25 1.23 1.17 1.12 1.04 0.99 0.96 0.92 0.89 0.89 0.89 0.83 0.77 0.77 0.76 0.73 0.67 0.64 0.61 0.63 0.77 1.11 1.28 1.30 1.26 1.31 1.38 1.35 1.26 1.25 1.44 1.53
0.64 0.80 0.92 0.98 1.05 1.10 1.10 1.09 1.06 0.99 0.92 0.90 0.93 0.91 0.84 0.78 0.73 0.70 0.68 0.66 0.64 0.59 0.56 0.54 0.53 0.58 0.70 0.94 1.29 1.39 1.20 1.04 1.06 1.14 1.13 1.16 1.29 1.35
0.67 0.76 0.82 0.86 0.91 0.95 0.95 0.93 0.92 0.89 0.84 0.81 0.82 0.83 0.82 0.73 0.64 0.58 0.54 0.49 0.48 0.50 0.53 0.56 0.55 0.47 0.48 0.60 0.89 1.12 1.13 1.10 1.02 1.00 0.95 1.00 1.02 0.94
0.63 0.70 0.71 0.71 0.72 0.76 0.73 0.69 0.71 0.72 0.71 0.73 0.72 0.72 0.72 0.66 0.58 0.52 0.47 0.45 0.45 0.43 0.43 0.45 0.41 0.39 0.44 0.57 0.78 0.95 0.97 0.90 0.86 0.82 0.78 0.76 0.74 0.83
0.53 0.56 0.60 0.60 0.57 0.56 0.58 0.59 0.61 0.66 0.67 0.67 0.65 0.63 0.60 0.54 0.47 0.42 0.40 0.38 0.37 0.36 0.38 0.43 0.42 0.42 0.45 0.53 0.66 0.75 0.73 0.67 0.64 0.65 0.71 0.75 0.71 0.77

GEFSNE_prec_meanprecacc_246.txt.gz
Total_Precipitation_Accumulation
1.32 1.40 1.45 1.48 1.56 1.56 1.62 1.74 1.92 1.87 1.64 1.42 1.30 1.31 1.38 1.47 1.65 1.49 1.42 1.39 1.24 1.15 1.13 1.16 1.19 1.21 1.30 1.43 1.52 1.59 1.61 1.63 1.66 1.75 1.88 2.03 2.21 2.34
1.17 1.21 1.25 1.31 1.49 1.59 1.65 1.75 1.90 1.96 1.83 1.47 1.29 1.25 1.31 1.37 1.63 1.48 1.48 1.53 1.32 1.14 1.06 1.15 1.21 1.20 1.21 1.22 1.24 1.29 1.37 1.42 1.45 1.52 1.65 1.75 1.89 2.07
1.05 1.07 1.12 1.21 1.31 1.38 1.49 1.62 1.81 1.97 1.98 1.65 1.38 1.28 1.34 1.41 1.48 1.45 1.37 1.28 1.20 1.21 1.07 1.09 1.30 1.47 1.37 1.21 1.13 1.12 1.16 1.22 1.29 1.36 1.48 1.63 1.72 1.81
0.94 0.99 0.94 0.99 1.12 1.22 1.33 1.42 1.55 1.70 1.84 1.75 1.49 1.37 1.36 1.44 1.52 1.54 1.37 1.23 1.13 1.18 1.08 1.04 1.20 1.58 1.66 1.42 1.28 1.17 1.09 1.07 1.11 1.19 1.29 1.40 1.52 1.69
0.81 0.90 0.93 1.02 1.10 1.20 1.33 1.36 1.44 1.48 1.68 1.69 1.52 1.45 1.43 1.45 1.59 1.53 1.32 1.30 1.02 1.00 1.02 1.03 1.16 1.73 2.10 1.85 1.56 1.40 1.21 1.09 1.00 1.05 1.14 1.22 1.26 1.33
0.73 0.77 0.83 0.97 1.09 1.23 1.29 1.37 1.49 1.59 1.67 1.72 1.65 1.63 1.61 1.57 1.65 1.69 1.52 1.36 1.14 0.89 0.97 1.04 1.22 1.69 2.28 2.43 2.03 1.74 1.49 1.31 1.15 1.05 1.04 1.03 1.01 0.99
0.77 0.76 0.73 0.81 0.96 1.05 1.10 1.29 1.56 1.73 1.73 1.76 1.72 1.72 1.70 1.76 1.68 1.61 1.57 1.43 1.20 1.01 1.05 1.02 1.25 1.88 2.48 2.79 2.58 2.01 1.59 1.39 1.25 1.13 1.06 0.99 0.94 0.89
0.81 0.79 0.69 0.66 0.70 0.77 0.85 0.99 1.23 1.50 1.68 1.75 1.71 1.69 1.66 1.71 1.70 1.61 1.62 1.59 1.43 1.10 1.09 1.16 1.43 2.26 2.83 3.06 2.96 2.21 1.58 1.35 1.26 1.18 1.11 1.03 0.94 0.88
0.80 0.82 0.68 0.59 0.70 0.79 0.81 0.81 0.89 1.09 1.40 1.65 1.69 1.58 1.66 1.74 1.79 1.78 1.68 1.68 1.60 1.27 1.20 1.35 1.62 2.24 2.69 3.07 3.00 2.30 1.76 1.44 1.32 1.24 1.16 1.09 1.01 0.91
0.70 0.75 0.80 0.81 0.72 0.72 0.78 0.92 1.09 1.18 1.26 1.32 1.50 1.53 1.55 1.57 1.56 1.59 1.62 1.64 1.51 1.25 1.26 1.52 1.70 2.11 2.46 2.92 2.86 2.23 1.79 1.55 1.40 1.29 1.18 1.06 0.98 0.93
0.59 0.58 0.62 0.70 0.67 0.72 0.88 1.12 1.32 1.49 1.36 1.32 1.41 1.56 1.56 1.40 1.24 1.33 1.58 1.67 1.51 1.24 1.17 1.43 1.64 1.84 2.17 2.51 2.43 2.12 1.77 1.58 1.41 1.26 1.15 1.05 0.95 0.93
0.63 0.61 0.66 0.66 0.67 0.82 0.99 1.29 1.52 1.63 1.47 1.39 1.51 1.65 1.58 1.46 1.38 1.44 1.64 1.64 1.52 1.45 1.24 1.31 1.47 1.60 1.99 2.13 1.96 1.74 1.67 1.65 1.50 1.34 1.19 1.05 0.93 0.85
0.63 0.71 0.77 0.78 0.73 0.83 1.01 1.24 1.46 1.53 1.48 1.44 1.46 1.50 1.55 1.57 1.47 1.44 1.49 1.46 1.46 1.44 1.19 1.30 1.51 1.61 1.84 1.97 1.86 1.70 1.53 1.50 1.49 1.54 1.48 1.22 0.99 0.87
0.69 0.73 0.77 0.79 0.79 0.91 1.04 1.26 1.47 1.60 1.51 1.38 1.28 1.26 1.27 1.33 1.31 1.19 1.15 1.15 1.20 1.25 1.17 1.27 1.59 1.75 1.73 1.68 1.80 1.72 1.62 1.59 1.51 1.55 1.61 1.48 1.24 1.13
0.62 0.77 0.78 0.74 0.88 1.15 1.32 1.45 1.62 1.70 1.55 1.32 1.23 1.15 1.09 1.07 1.05 1.08 1.06 1.01 0.96 0.94 0.88 1.02 1.34 1.54 1.59 1.59 1.66 1.63 1.74 1.91 1.77 1.70 1.63 1.49 1.36 1.21
0.52 0.71 0.85 0.91 1.06 1.32 1.55 1.67 1.73 1.67 1.46 1.27 1.16 1.08 0.99 0.99 1.01 1.01 1.04 1.02 1.02 1.01 0.92 0.92 1.08 1.30 1.44 1.43 1.51 1.59 1.68 2.07 2.08 1.83 1.69 1.62 1.49 1.34
0.46 0.66 0.88 1.00 1.19 1.39 1.53 1.55 1.52 1.44 1.36 1.21 1.10 1.04 1.01 1.00 1.01 0.99 1.01 0.97 0.99 0.98 0.98 0.97 1.00 1.07 1.15 1.23 1.38 1.49 1.65 1.86 1.91 1.71 1.60 1.66 1.62 1.45
0.51 0.75 0.95 1.07 1.23 1.33 1.42 1.40 1.33 1.26 1.20 1.14 1.09 1.01 0.98 0.98 1.00 0.96 0.91 0.91 0.95 0.91 0.86 0.84 0.83 0.87 0.96 1.11 1.27 1.37 1.44 1.62 1.67 1.55 1.39 1.46 1.62 1.54
0.57 0.79 0.98 1.13 1.22 1.25 1.28 1.26 1.21 1.15 1.07 1.03 1.00 0.96 0.91 0.91 0.90 0.85 0.80 0.80 0.80 0.76 0.70 0.67 0.65 0.66 0.80 1.13 1.30 1.32 1.30 1.35 1.42 1.39 1.32 1.32 1.50 1.59
0.66 0.82 0.96 1.02 1.09 1.15 1.15 1.14 1.10 1.02 0.95 0.93 0.97 0.95 0.87 0.81 0.76 0.73 0.71 0.68 0.66 0.61 0.58 0.56 0.56 0.63 0.75 0.98 1.31 1.41 1.24 1.09 1.10 1.18 1.18 1.22 1.35 1.40
0.69 0.79 0.84 0.89 0.94 0.98 0.98 0.96 0.95 0.92 0.87 0.84 0.84 0.86 0.84 0.75 0.67 0.60 0.56 0.50 0.49 0.51 0.55 0.59 0.58 0.51 0.53 0.64 0.92 1.14 1.16 1.14 1.06 1.03 1.00 1.07 1.08 0.99
0.64 0.71 0.72 0.72 0.74 0.78 0.75 0.71 0.73 0.75 0.74 0.75 0.74 0.74 0.75 0.69 0.60 0.53 0.48 0.47 0.47 0.45 0.46 0.48 0.44 0.42 0.47 0.60 0.80 0.97 0.99 0.93 0.91 0.86 0.82 0.80 0.79 0.87
0.54 0.58 0.61 0.62 0.58 0.57 0.59 0.60 0.62 0.68 0.71 0.70 0.68 0.66 0.63 0.56 0.49 0.44 0.42 0.40 0.39 0.38 0.40 0.45 0.45 0.45 0.48 0.55 0.68 0.77 0.76 0.70 0.68 0.70 0.76 0.81 0.75 0.81

GEFSNE_prec_meanprecacc_252.txt.gz
Total_Precipitation_Accumulation
1.37 1.46 1.51 1.54 1.63 1.63 1.69 1.81 2.00 1.97 1.73 1.50 1.37 1.37 1.44 1.52 1.74 1.58 1.50 1.46 1.28 1.18 1.16 1.18 1.20 1.23 1.33 1.46 1.56 1.63 1.65 1.67 1.70 1.79 1.92 2.07 2.24 2.37
1.23 1.27 1.31 1.37 1.56 1.66 1.72 1.81 1.97 2.04 1.91 1.53 1.35 1.28 1.35 1.41 1.68 1.57 1.56 1.61 1.37 1.17 1.09 1.18 1.23 1.21 1.23 1.24 1.26 1.32 1.40 1.45 1.48 1.55 1.67 1.78 1.92 2.10
1.10 1.12 1.17 1.25 1.37 1.43 1.56 1.68 1.88 2.05 2.06 1.71 1.44 1.33 1.39 1.46 1.52 1.49 1.43 1.34 1.26 1.25 1.10 1.11 1.33 1.50 1.39 1.23 1.15 1.14 1.18 1.25 1.33 1.40 1.52 1.66 1.76 1.84
0.98 1.03 0.98 1.03 1.16 1.26 1.39 1.49 1.63 1.79 1.92 1.82 1.56 1.45 1.43 1.49 1.58 1.60 1.41 1.27 1.18 1.24 1.12 1.07 1.23 1.61 1.68 1.44 1.30 1.19 1.11 1.10 1.14 1.23 1.34 1.44 1.56 1.73
0.86 0.94 0.97 1.06 1.14 1.24 1.38 1.42 1.51 1.56 1.77 1.77 1.58 1.54 1.52 1.52 1.66 1.59 1.37 1.36 1.07 1.04 1.06 1.07 1.20 1.77 2.13 1.89 1.60 1.43 1.24 1.12 1.03 1.08 1.18 1.28 1.31 1.37
0.76 0.81 0.88 1.02 1.13 1.27 1.33 1.41 1.54 1.65 1.75 1.82 1.75 1.72 1.69 1.67 1.73 1.76 1.59 1.43 1.20 0.92 1.01 1.09 1.26 1.72 2.31 2.46 2.06 1.78 1.54 1.36 1.20 1.09 1.08 1.07 1.05 1.03
0.82 0.80 0.77 0.85 1.00 1.10 1.15 1.34 1.61 1.78 1.80 1.84 1.82 1.83 1.79 1.85 1.76 1.68 1.65 1.50 1.27 1.06 1.09 1.06 1.29 1.94 2.53 2.83 2.62 2.05 1.65 1.46 1.33 1.20 1.13 1.06 1.00 0.94
0.87 0.85 0.73 0.71 0.75 0.81 0.88 1.02 1.27 1.54 1.73 1.81 1.78 1.77 1.73 1.78 1.77 1.68 1.69 1.68 1.50 1.15 1.15 1.21 1.49 2.34 2.90 3.12 3.02 2.26 1.64 1.42 1.33 1.25 1.19 1.12 1.03 0.96
0.87 0.88 0.73 0.63 0.75 0.85 0.85 0.84 0.92 1.12 1.44 1.69 1.74 1.63 1.72 1.80 1.87 1.86 1.77 1.77 1.67 1.32 1.27 1.41 1.70 2.32 2.76 3.14 3.07 2.37 1.82 1.51 1.39 1.31 1.23 1.15 1.07 0.98
0.77 0.82 0.87 0.87 0.77 0.78 0.83 0.96 1.13 1.24 1.32 1.36 1.55 1.59 1.60 1.63 1.63 1.67 1.71 1.73 1.58 1.31 1.33 1.60 1.77 2.18 2.52 2.99 2.92 2.27 1.84 1.59 1.45 1.34 1.23 1.11 1.03 0.98
0.64 0.63 0.67 0.73 0.70 0.76 0.92 1.17 1.38 1.55 1.41 1.37 1.45 1.60 1.59 1.44 1.30 1.44 1.70 1.79 1.60 1.31 1.24 1.51 1.71 1.91 2.23 2.57 2.48 2.16 1.82 1.63 1.45 1.30 1.19 1.09 1.00 0.98
0.69 0.66 0.69 0.69 0.70 0.85 1.03 1.35 1.57 1.69 1.53 1.44 1.54 1.67 1.60 1.48 1.42 1.50 1.72 1.73 1.60 1.52 1.31 1.39 1.54 1.67 2.06 2.19 2.00 1.79 1.72 1.71 1.56 1.40 1.24 1.09 0.98 0.90
0.68 0.75 0.80 0.80 0.75 0.86 1.05 1.29 1.51 1.59 1.55 1.50 1.51 1.54 1.59 1.60 1.50 1.48 1.53 1.53 1.54 1.51 1.24 1.37 1.59 1.68 1.91 2.03 1.91 1.75 1.57 1.55 1.55 1.62 1.56 1.30 1.06 0.94
0.72 0.76 0.79 0.81 0.81 0.94 1.07 1.30 1.51 1.66 1.58 1.46 1.36 1.32 1.33 1.38 1.36 1.24 1.20 1.20 1.26 1.31 1.22 1.34 1.65 1.81 1.79 1.73 1.84 1.76 1.66 1.63 1.56 1.62 1.69 1.57 1.33 1.22
0.64 0.79 0.80 0.77 0.90 1.18 1.36 1.50 1.67 1.75 1.61 1.39 1.31 1.22 1.16 1.14 1.11 1.13 1.11 1.06 1.01 0.98 0.92 1.07 1.40 1.61 1.66 1.64 1.69 1.67 1.77 1.94 1.80 1.75 1.69 1.57 1.45 1.31
0.56 0.73 0.88 0.96 1.10 1.37 1.60 1.73 1.79 1.72 1.51 1.32 1.22 1.15 1.07 1.06 1.08 1.05 1.08 1.07 1.08 1.06 0.96 0.95 1.12 1.35 1.49 1.48 1.55 1.63 1.70 2.10 2.10 1.86 1.72 1.68 1.56 1.43
0.49 0.70 0.91 1.04 1.24 1.45 1.58 1.59 1.56 1.48 1.41 1.26 1.15 1.10 1.08 1.07 1.07 1.04 1.06 1.01 1.03 1.02 1.02 1.01 1.03 1.12 1.20 1.29 1.43 1.53 1.68 1.90 1.94 1.74 1.64 1.72 1.69 1.51
0.53 0.77 0.97 1.09 1.25 1.36 1.46 1.44 1.36 1.29 1.23 1.18 1.12 1.06 1.04 1.03 1.06 1.01 0.97 0.96 1.00 0.96 0.90 0.88 0.86 0.91 1.03 1.16 1.31 1.41 1.48 1.66 1.71 1.60 1.44 1.52 1.68 1.60
0.58 0.81 1.00 1.14 1.24 1.27 1.31 1.29 1.24 1.18 1.09 1.05 1.03 0.99 0.95 0.95 0.94 0.90 0.85 0.85 0.85 0.82 0.75 0.71 0.70 0.72 0.87 1.20 1.35 1.37 1.35 1.40 1.46 1.44 1.38 1.38 1.57 1.65
0.67 0.84 0.97 1.03 1.11 1.17 1.17 1.17 1.13 1.06 0.98 0.96 1.00 0.98 0.90 0.84 0.79 0.77 0.76 0.73 0.71 0.66 0.63 0.61 0.61 0.68 0.80 1.04 1.37 1.45 1.27 1.13 1.15 1.23 1.23 1.28 1.41 1.44
0.71 0.81 0.86 0.91 0.96 1.01 1.02 1.00 0.99 0.96 0.91 0.88 0.88 0.89 0.87 0.78 0.70 0.64 0.61 0.54 0.53 0.55 0.59 0.63 0.62 0.55 0.57 0.69 0.96 1.18 1.19 1.17 1.10 1.07 1.04 1.11 1.13 1.03
0.66 0.73 0.74 0.74 0.76 0.81 0.79 0.74 0.75 0.77 0.76 0.78 0.77 0.77 0.78 0.73 0.65 0.58 0.52 0.51 0.51 0.49 0.49 0.51 0.47 0.45 0.52 0.65 0.84 1.00 1.02 0.95 0.93 0.88 0.84 0.83 0.82 0.90
0.56 0.59 0.63 0.63 0.60 0.60 0.62 0.61 0.63 0.70 0.72 0.72 0.71 0.69 0.67 0.61 0.54 0.49 0.47 0.45 0.43 0.42 0.44 0.49 0.48 0.48 0.52 0.60 0.72 0.79 0.78 0.73 0.71 0.72 0.78 0.82 0.76 0.82